Showing default

YUNYAO-1 45, 63346

Orbit data source: Space-Track

YUNYAO-1 45, 63346 is a payload satellite owned by Yunyao yuhang (CN) in SSO that was launched on Fri, 21 Mar 2025 UTC via a GUSHENXING 1 launch vehicle from the Jiuquan Satellite Launch Center, China (JSC). Payload-class satellites include a variety of spacecraft equipped with specific instruments for various scientific and technological missions. These include communications satellites like Starlink; space stations such as the ISS; scientific satellites like the Hubble; Earth observation satellites from companies like Planet Labs, Umbra, and HawkEye 360; GPS; miniature CubeSats for education and research; and military/defense satellites.

Loading next visibility...
Identifier
63346, 2025-059C
Orbit
SSO
Last TLE update
8 hours ago
Origin
Manufacturer
Changguang WJ
Mission
Operational spacecraft
Bus & Motor
YY-1, Unknown motor
Mass
~50 kg wet, ~50 kg dry
Launch date (UTC)
2025-03-21 (3 months ago)
Launch vehicle
GUSHENXING 1
Launch site
Jiuquan Satellite Launch Center, China (JSC)
Object type
Payload
Rocket body
Debris
Shape & HBR
Unknown
Radar Cross Section
Medium (>0.1 m² and <1 m²)

Expand to show TLE details & history

TLE from 8 hours ago
0 YUNYAO-1 45
1 63346U 25059C   25182.86175625  .00002555  00000-0  17024-3 0  9995
2 63346  97.6022   2.1502 0015777 277.4189  82.5246 15.07907229 15459
Epoch: 2025-07-01T20:40Z
TLE epoch observation values (Epoch: 2025-07-01T20:40:55.739Z)
Latitude
-0.00007°
Longitude
131.76683°
Altitude
544.26 km
Speed
7.591 km/s
True Right ascension
00h 08m 36s
True Declination
0° 00' 00"
Sunlit
Object was in daylight at epoch
Visualization orbit readout
Latitude
-5.2562°
Longitude
132.79364°
Altitude
544.31 km
Speed
7.591 km/s
Apparent Right ascension
01h 52m 44s
Apparent Declination
-24° 46' 37"
Sunlit
Object is in daylight
Visualization observer readout
Local Sidereal Time
16:18:45
Azimuth
74.787° E
Elevation
-55.963°
Doppler factor
1
Orbital elements
Apogee altitude
550.5 km
Perigee altitude
528.672 km
Semi-major axis
6,917.723 km
Eccentricity
0.00158
Inclination
97.6022°
RAAN
2.1502°
Arg. of periapsis
277.4189°
True anomaly
Unknown
Mean anomaly
82.5246°
Eccentric anomaly
Unknown
Mean motion
3.77223 °/min
Orbital period
95.43 mins
BSTAR
0.00017024
Loading maneuver chart data...
Loading SW <> Apogee altitude chart data...
Loading historical data...
Loading historical data...
Loading historical data...
Loading historical data...
Loading historical data...
Loading historical data...
Loading historical data...
Other satellites on launch #59 in the year 2025 (2025-03-21 UTC)

YUNYAO-1 45 Visibility forecast

Observer location: undefined°, undefined°

Span
Click to sort rows by Start time (UTC) header in descending order
Start Az.
Max El. time (UTC)
Max El. Az.
Max El.
End time (UTC)
End Az.
5 mins2025-07-02 11:10:18.842Z108.882° ESE2025-07-02 11:12:18.842Z70.293° E20.531°2025-07-02 11:15:18.842Z18.884° NNE
4 mins2025-07-02 12:45:18.842Z229.626° WSW2025-07-02 12:47:18.842Z276.957° WNW22.566°2025-07-02 12:49:18.842Z313.308° NW
6 mins2025-07-03 00:20:18.842Z39.554° NE2025-07-03 00:22:18.842Z80.712° E29.336°2025-07-03 00:26:18.842Z164.701° S
|